Weather in Taush

Russia / Perm Krai     56°25′37″N   56°04′47″E
temp.,
°C
wind,
m/s
gust,
m/s
humid.,
%
clouds,
%
prec.,
mm/h
press.,
hPa
HPBL,
m
15 august, mon
mon1523:00+13nnw22744 0.0 102210
02:00+11n11769 0.0 102210
05:00+14wsw116599 0.0 102310
08:00+15nw016776 0.0 102334
11:00+19n225096 0.0 1023773
14:00+21nnw33460 0.0 10231398
17:00+22nnw44410 0.0 10221838
20:00+17n33600 0.0 102328
16 august, tue
tue1623:00+13ne22700 0.0 102412
02:00+11ne22760 0.0 102512
05:00+10nne22760 0.0 102610
08:00+14ne11630 0.0 102687
11:00+20wnw22470 0.0 1026639
14:00+23nw33395 0.0 10251662
17:00+23nw44406 0.0 10242050
20:00+19wnw346039 0.0 102450
17 august, wed
wed1723:00+19nw3554100 0.0 102497
02:00+14ne3377100 0.0 102547
05:00+12nne227277 0.0 102525
08:00+15ne246321 0.0 1026143
11:00+20nne34455 0.0 1025874
14:00+23nne34375 0.0 10241455
17:00+23n34385 0.0 10231754
20:00+19nnw346112 0.0 102353
18 august, thu
thu1823:00+14e2273100 0.0 102312
02:00+13ne347666 0.0 102357
05:00+11ene11875 0.0 102310
08:00+14ene237719 0.0 1023190
11:00+19ne336490 0.0 1023734
14:00+22nne34515 0.0 10221229
17:00+22nne454555 0.0 10221621
20:00+18ene36645 0.0 1023133
19 august, fri
fri1923:00+12ene347112 0.0 102465
02:00+11ene2276100 0.0 102527
05:00+9ene22735 0.0 102617
08:00+13e23625 0.0 1028118
11:00+19se33375 0.0 10281076
14:00+22ene12315 0.0 10281786
17:00+22nne22315 0.0 10271805
20:00+17nw11483 0.0 102711